Location: Cahas Mountain Overlook
(37.0833°N, 80.1000°W)
Time: 13:49:41
(UTC-05:00)

SR - Pass Details

Date: 10 December 2023
Orbit: 574 x 867 km, 66.7° (Epoch: 29 February)

Event Time Altitude Azimuth Distance (km) Brightness Sun altitude
Rises 17:46:47 0° 346° (NNW) 3,443 ? -8.6°
Reaches altitude 10° 17:50:32 10° 10° (N) 2,474 ? -9.3°
Maximum altitude 17:53:39 15° 43° (NE) 2,117 ? -9.9°
Enters shadow 17:55:27 13° 64° (ENE) 2,206 ? -10.3°
Drops below altitude 10° 17:56:42 10° 77° (ENE) 2,391 - -10.5°
Sets 18:00:12 0° 100° (E) 3,258 - -11.1°
